Weather History for KJDN - May, 2013

Change the Weather History Date:

Tuesday, May 14, 2013

  Actual Average Record
Temperature  
Mean Temperature 62 °F 52 °F  
Max Temperature 74 °F 66 °F - ()
Min Temperature 50 °F 38 °F - ()
Degree Days  
Heating Degree Days 3 13  
Month to date heating degree days 176 210  
Since 1 July heating degree days 7498 7944  
Cooling Degree Days 0 0  
Month to date cooling degree days 10 0  
Year to date cooling degree days 10 0  
Growing Degree Days 12 (Base 50)    
Moisture  
Dew Point 33 °F    
Average Humidity 50    
Maximum Humidity 83    
Minimum Humidity 16    
Precipitation  
Precipitation 0.00 in 0.05 in - ()
Month to date precipitation 0.00 0.78  
Year to date precipitation 2.84 2.86  
Snow  
Snow 0.00 in - - ()
Month to date snowfall 0.0  
Since 1 July snowfall 0.0  
Snow Depth 0.00 in    
Sea Level Pressure  
Sea Level Pressure 29.84 in    
Wind  
Wind Speed 15 mph (WNW)    
Max Wind Speed 35 mph    
Max Gust Speed 44 mph    
T = Trace of Precipitation, MM = Missing Value Source: NWS Daily Summary

Daily Weather History Graph

Daily Weather History Graph

Search for Another Location

Airport or City:

Trip Planner

Search our weather history database for the weather conditions in past years. The results will help you decide how hot, cold, wet, or windy it might be!

Date:

Astronomy

May. 14, 2013 Rise Set
Actual Time 5:32 AM MDT 8:36 PM MDT
Civil Twilight 4:55 AM MDT 9:13 PM MDT
Nautical Twilight 4:09 AM MDT 10:00 PM MDT
Astronomical Twilight 3:11 AM MDT 10:58 PM MDT
Moon 9:15 AM MDT (5/14) No Moon Set
Length of Visible Light 16h 17m
Length of Day
15h 04m
Waxing Crescent, 19% of the Moon is Illuminated
May 14
Waxing Crescent
May 17
First Quarter
May 24
Full
May 31
Last Quarter
Jun 8
New

Hourly Weather History & Observations

Time (MDT) Temp. Dew Point Humidity Pressure Visibility Wind Dir Wind Speed Gust Speed Precip Events Conditions
12:48 AM 57.9 °F 52.0 °F 81% 29.70 in - NW 9.2 mph - N/A   Unknown
1:48 AM 57.0 °F 51.1 °F 81% 29.73 in - NNW 11.5 mph - N/A   Unknown
2:48 AM 51.1 °F 46.0 °F 83% 29.75 in - WSW 6.9 mph - N/A   Unknown
3:48 AM 54.0 °F 44.1 °F 69% 29.77 in - West 9.2 mph - N/A   Unknown
4:48 AM 55.0 °F 36.0 °F 49% 29.77 in - WNW 19.6 mph - N/A   Unknown
5:48 AM 55.9 °F 34.0 °F 44% 29.80 in - WNW 23.0 mph 27.6 mph N/A   Unknown
6:48 AM 55.9 °F 36.0 °F 47% 29.83 in - West 16.1 mph - N/A   Unknown
7:48 AM 61.0 °F 33.1 °F 35% 29.86 in - WNW 27.6 mph 38.0 mph N/A   Unknown
8:48 AM 63.0 °F 32.0 °F 31% 29.88 in - WNW 27.6 mph 38.0 mph N/A   Unknown
9:48 AM 64.9 °F 30.9 °F 28% 29.89 in - WNW 27.6 mph 38.0 mph N/A   Unknown
10:48 AM 66.9 °F 28.9 °F 24% 29.88 in - WNW 24.2 mph 32.2 mph N/A   Unknown
11:48 AM 69.1 °F 28.0 °F 22% 29.89 in - NW 20.7 mph 32.2 mph N/A   Unknown
12:48 PM 71.1 °F 28.0 °F 20% 29.88 in - West 10.4 mph 18.4 mph N/A   Unknown
1:48 PM 72.0 °F 27.0 °F 19% 29.87 in - WNW 16.1 mph 26.5 mph N/A   Unknown
2:48 PM 73.0 °F 25.0 °F 17% 29.87 in - WNW 18.4 mph 26.5 mph N/A   Unknown
3:48 PM 72.0 °F 26.1 °F 18% 29.84 in - NW 17.3 mph - N/A   Unknown
4:48 PM 69.1 °F 28.0 °F 22% 29.83 in - NW 11.5 mph - N/A   Unknown
5:48 PM 70.0 °F 26.1 °F 19% 29.84 in - NW 12.7 mph - N/A   Unknown
6:48 PM 70.0 °F 26.1 °F 19% 29.83 in - NW 18.4 mph 23.0 mph N/A   Unknown
7:48 PM 64.0 °F 28.0 °F 26% 29.85 in - NNW 8.1 mph - N/A   Unknown
8:48 PM 57.9 °F 33.1 °F 39% 29.86 in - Calm Calm - N/A   Unknown
9:48 PM 55.0 °F 33.1 °F 43% 29.90 in - Calm Calm - N/A   Unknown
10:48 PM 57.9 °F 30.0 °F 35% 29.91 in - North 10.4 mph - N/A   Unknown
11:48 PM 61.0 °F 24.1 °F 24% 29.91 in - NNW 12.7 mph - N/A   Unknown